TimeCST,TemperatureF,Dew PointF,Humidity,Sea Level PressureIn,VisibilityMPH,Wind Direction,Wind SpeedMPH,Gust SpeedMPH,PrecipitationIn,Events,Conditions,WindDirDegrees,DateUTC
12:53 AM,28.4,23.0,80,30.17,10.0,WNW,11.5,-,N/A,,Clear,290,2013-02-28 06:53:00
1:53 AM,28.9,23.0,78,30.20,10.0,WNW,10.4,-,N/A,,Clear,300,2013-02-28 07:53:00
2:39 AM,28.4,23.0,80,30.17,10.0,NW,10.4,-,N/A,,Mostly Cloudy,310,2013-02-28 08:39:00
2:53 AM,30.0,24.1,79,30.20,10.0,WNW,10.4,-,N/A,,Overcast,300,2013-02-28 08:53:00
3:53 AM,30.0,24.1,79,30.20,10.0,WNW,13.8,-,N/A,,Overcast,300,2013-02-28 09:53:00
4:53 AM,30.9,25.0,79,30.21,10.0,WNW,11.5,-,N/A,,Overcast,290,2013-02-28 10:53:00
5:53 AM,30.9,25.0,79,30.23,10.0,WNW,12.7,-,N/A,,Overcast,300,2013-02-28 11:53:00
6:53 AM,32.0,25.0,75,30.23,10.0,WNW,15.0,-,N/A,,Overcast,300,2013-02-28 12:53:00
7:53 AM,32.0,26.6,80,30.21,10.0,NW,12.7,-,N/A,,Overcast,310,2013-02-28 13:53:00
8:53 AM,33.1,26.1,75,30.26,10.0,NNW,12.7,-,N/A,,Overcast,330,2013-02-28 14:53:00
9:53 AM,34.0,26.1,73,30.26,8.0,NNW,13.8,-,0.00,,Overcast,340,2013-02-28 15:53:00
10:53 AM,34.0,26.1,73,30.27,8.0,NNW,13.8,-,N/A,,Overcast,340,2013-02-28 16:53:00
11:53 AM,34.0,26.1,73,30.28,7.0,NNW,16.1,-,0.00,Snow,Light Snow,330,2013-02-28 17:53:00
12:53 PM,35.1,26.1,70,30.27,8.0,NNW,13.8,-,N/A,,Overcast,340,2013-02-28 18:53:00
1:53 PM,35.1,26.1,70,30.25,9.0,North,12.7,-,N/A,,Overcast,350,2013-02-28 19:53:00
2:53 PM,36.0,26.1,67,30.25,9.0,NNW,12.7,-,0.00,,Overcast,340,2013-02-28 20:53:00
3:53 PM,37.0,26.1,65,30.25,9.0,North,11.5,-,N/A,,Overcast,350,2013-02-28 21:53:00
4:53 PM,36.0,26.1,67,30.24,9.0,North,13.8,-,N/A,,Overcast,350,2013-02-28 22:53:00
5:53 PM,35.1,26.1,70,30.25,9.0,North,10.4,-,N/A,,Overcast,350,2013-02-28 23:53:00
6:53 PM,34.0,27.0,75,30.27,10.0,North,6.9,-,N/A,,Overcast,350,2013-03-01 00:53:00
7:53 PM,34.0,27.0,75,30.28,10.0,NNW,6.9,-,N/A,,Overcast,340,2013-03-01 01:53:00
8:53 PM,34.0,25.0,70,30.27,10.0,North,10.4,-,N/A,,Overcast,360,2013-03-01 02:53:00
9:53 PM,33.1,25.0,72,30.28,10.0,North,10.4,-,N/A,,Overcast,350,2013-03-01 03:53:00
10:53 PM,33.1,26.1,75,30.28,10.0,NNW,5.8,-,N/A,,Overcast,330,2013-03-01 04:53:00
11:53 PM,32.0,25.0,75,30.26,10.0,North,6.9,-,N/A,,Overcast,350,2013-03-01 05:53:00